UPCS205 UAAA-UAAA

Flight info

Callsign UPCS205
Flight time 0h 45m
Altitude 5200
Route RA/A052
Aircraft C414/L-S/N

Departure

Time 2026-04-27 18:28
Airport Almaty International Airport (UAAA)

Arrival

Time 2026-04-27 19:13
Airport Almaty International Airport (UAAA)
Time Latitude Longitude Altitude Speed Heading
2026-04-27 18:20 43.34273 77.01413 2219 ft 0 kts 246°
2026-04-27 18:25 43.34258 77.01387 2219 ft 7 kts 182°
2026-04-27 18:25 43.34247 77.01443 2221 ft 9 kts 66°
2026-04-27 18:25 43.34274 77.01527 2221 ft 10 kts 65°
2026-04-27 18:25 43.34301 77.01609 2219 ft 8 kts 66°
2026-04-27 18:26 43.34296 77.01646 2219 ft 4 kts 159°
2026-04-27 18:26 43.34258 77.01669 2223 ft 0 kts 155°
2026-04-27 18:26 43.34251 77.01673 2223 ft 6 kts 156°
2026-04-27 18:26 43.34171 77.01746 2227 ft 19 kts 120°
2026-04-27 18:27 43.34175 77.01835 2226 ft 15 kts 57°
2026-04-27 18:27 43.34358 77.02207 2225 ft 77 kts 57°
2026-04-27 18:27 43.34746 77.02988 2276 ft 118 kts 56°
2026-04-27 18:27 43.35236 77.03994 2542 ft 133 kts 57°
2026-04-27 18:28 43.35755 77.05095 2862 ft 143 kts 56°
2026-04-27 18:28 43.36291 77.06240 3218 ft 142 kts 57°
2026-04-27 18:28 43.36805 77.07374 3565 ft 139 kts 56°
2026-04-27 18:28 43.37335 77.08484 3888 ft 140 kts 54°
2026-04-27 18:29 43.37888 77.09582 4209 ft 140 kts 55°
2026-04-27 18:29 43.38438 77.10696 4535 ft 141 kts 55°
2026-04-27 18:29 43.38993 77.11810 4861 ft 142 kts 55°
2026-04-27 18:29 43.39554 77.12926 5168 ft 143 kts 55°
2026-04-27 18:30 43.40149 77.14109 5201 ft 158 kts 55°
2026-04-27 18:30 43.40834 77.15347 5208 ft 168 kts 40°
2026-04-27 18:30 43.41939 77.15846 5209 ft 176 kts 356°
2026-04-27 18:30 43.43070 77.15181 5210 ft 182 kts 327°
2026-04-27 18:31 43.44107 77.14160 5209 ft 185 kts 326°
2026-04-27 18:31 43.45166 77.13138 5208 ft 187 kts 326°
2026-04-27 18:31 43.46235 77.12104 5206 ft 189 kts 326°
2026-04-27 18:31 43.47308 77.11066 5206 ft 189 kts 326°
2026-04-27 18:32 43.48384 77.10023 5206 ft 190 kts 326°
2026-04-27 18:32 43.49456 77.08982 5209 ft 189 kts 326°
2026-04-27 18:32 43.50331 77.07672 5194 ft 190 kts 295°
2026-04-27 18:32 43.50400 77.05891 5188 ft 192 kts 253°
2026-04-27 18:33 43.49741 77.04303 5191 ft 192 kts 236°
2026-04-27 18:33 43.48969 77.02811 5197 ft 192 kts 235°
2026-04-27 18:33 43.48196 77.01326 5199 ft 191 kts 234°
2026-04-27 18:33 43.47428 76.99832 5230 ft 189 kts 235°
2026-04-27 18:34 43.46698 76.98408 5498 ft 176 kts 235°
2026-04-27 18:34 43.46017 76.97071 5782 ft 166 kts 235°
2026-04-27 18:34 43.45492 76.95715 6060 ft 159 kts 261°
2026-04-27 18:34 43.45783 76.94335 6346 ft 153 kts 313°
2026-04-27 18:35 43.46726 76.93806 6629 ft 151 kts
2026-04-27 18:35 43.47603 76.94497 6913 ft 150 kts 57°
2026-04-27 18:35 43.47952 76.95836 7203 ft 150 kts 75°
2026-04-27 18:35 43.48234 76.97219 7493 ft 151 kts 75°
2026-04-27 18:36 43.48514 76.98607 7788 ft 151 kts 75°
2026-04-27 18:36 43.48794 77.00004 8085 ft 152 kts 75°
2026-04-27 18:36 43.49073 77.01402 8383 ft 152 kts 75°
2026-04-27 18:36 43.49349 77.02802 8681 ft 152 kts 75°
2026-04-27 18:37 43.49630 77.04205 8989 ft 152 kts 75°
2026-04-27 18:37 43.49910 77.05607 9291 ft 152 kts 75°
2026-04-27 18:37 43.50188 77.07009 9595 ft 152 kts 75°
2026-04-27 18:37 43.50464 77.08415 9906 ft 152 kts 75°
2026-04-27 18:38 43.50749 77.09873 9995 ft 166 kts 75°
2026-04-27 18:38 43.51061 77.11472 10005 ft 180 kts 75°
2026-04-27 18:38 43.51395 77.13181 10005 ft 189 kts 76°
2026-04-27 18:38 43.51475 77.15006 10003 ft 195 kts 94°
2026-04-27 18:39 43.51364 77.16885 10001 ft 199 kts 95°
2026-04-27 18:39 43.51243 77.18799 10000 ft 202 kts 95°
2026-04-27 18:39 43.51121 77.20728 10002 ft 203 kts 95°
2026-04-27 18:39 43.50998 77.22669 9999 ft 204 kts 95°
2026-04-27 18:40 43.50875 77.24618 10004 ft 205 kts 95°
2026-04-27 18:40 43.50757 77.26576 10001 ft 206 kts 95°
2026-04-27 18:40 43.50444 77.28470 10000 ft 204 kts 120°
2026-04-27 18:40 43.49412 77.29749 10003 ft 203 kts 158°
2026-04-27 18:41 43.48034 77.29886 10004 ft 203 kts 195°
2026-04-27 18:41 43.46867 77.28838 10005 ft 204 kts 229°
2026-04-27 18:41 43.46023 77.27277 10003 ft 204 kts 234°
2026-04-27 18:41 43.45210 77.25671 10005 ft 205 kts 235°
2026-04-27 18:42 43.44405 77.24060 10005 ft 205 kts 235°
2026-04-27 18:42 43.43873 77.22976 10004 ft 205 kts 236°
2026-04-27 18:42 43.42823 77.20792 10005 ft 206 kts 236°
2026-04-27 18:42 43.42038 77.19158 10007 ft 206 kts 236°
2026-04-27 18:43 43.41250 77.17519 10007 ft 206 kts 237°
2026-04-27 18:43 43.40496 77.15852 10008 ft 206 kts 238°
2026-04-27 18:43 43.39779 77.14151 10009 ft 206 kts 241°
2026-04-27 18:43 43.39106 77.12415 10009 ft 206 kts 241°
2026-04-27 18:44 43.38422 77.10693 10007 ft 206 kts 240°
2026-04-27 18:44 43.37701 77.08997 10007 ft 206 kts 238°
2026-04-27 18:44 43.37024 77.07278 10005 ft 205 kts 251°
2026-04-27 18:44 43.36683 77.05416 9848 ft 196 kts 258°
2026-04-27 18:45 43.36412 77.03622 9631 ft 188 kts 258°
2026-04-27 18:45 43.36154 77.01883 9392 ft 184 kts 258°
2026-04-27 18:45 43.35902 77.00174 9130 ft 182 kts 258°
2026-04-27 18:45 43.35653 76.98481 8872 ft 180 kts 258°
2026-04-27 18:46 43.35407 76.96798 8618 ft 179 kts 258°
2026-04-27 18:46 43.35163 76.95131 8368 ft 178 kts 258°
2026-04-27 18:46 43.34916 76.93468 8119 ft 177 kts 258°
2026-04-27 18:46 43.34670 76.91816 7877 ft 177 kts 258°
2026-04-27 18:47 43.34427 76.90163 7628 ft 176 kts 258°
2026-04-27 18:47 43.34184 76.88506 7306 ft 179 kts 258°
2026-04-27 18:47 43.33939 76.86831 6966 ft 180 kts 258°
2026-04-27 18:47 43.33693 76.85142 6636 ft 181 kts 258°
2026-04-27 18:48 43.33453 76.83443 6295 ft 182 kts 258°
2026-04-27 18:48 43.33196 76.81746 5939 ft 182 kts 257°
2026-04-27 18:48 43.32925 76.80044 5568 ft 184 kts 257°
2026-04-27 18:48 43.32639 76.78320 5210 ft 185 kts 254°
2026-04-27 18:49 43.31963 76.76966 5179 ft 168 kts 215°
2026-04-27 18:49 43.30941 76.76229 5183 ft 166 kts 194°
2026-04-27 18:49 43.29815 76.76060 5177 ft 162 kts 175°
2026-04-27 18:49 43.28729 76.76399 5183 ft 160 kts 158°
2026-04-27 18:50 43.27738 76.77049 5186 ft 158 kts 149°
2026-04-27 18:50 43.26780 76.77788 5186 ft 158 kts 148°
2026-04-27 18:50 43.25866 76.78620 5187 ft 158 kts 141°
2026-04-27 18:50 43.25296 76.79847 5191 ft 156 kts 99°
2026-04-27 18:51 43.25136 76.81313 5195 ft 156 kts 93°
2026-04-27 18:51 43.25206 76.82798 5162 ft 159 kts 78°
2026-04-27 18:51 43.25594 76.84204 5035 ft 158 kts 58°
2026-04-27 18:51 43.26173 76.85490 4911 ft 159 kts 56°
2026-04-27 18:52 43.26778 76.86760 4810 ft 159 kts 57°
2026-04-27 18:52 43.27398 76.88033 4612 ft 163 kts 56°
2026-04-27 18:52 43.28028 76.89311 4364 ft 161 kts 55°
2026-04-27 18:53 43.29242 76.91773 4074 ft 150 kts 55°
2026-04-27 18:53 43.29816 76.92941 3756 ft 148 kts 55°
2026-04-27 18:53 43.30393 76.94111 3428 ft 147 kts 55°
2026-04-27 18:53 43.30942 76.95226 3303 ft 135 kts 55°
2026-04-27 18:54 43.31433 76.96223 3232 ft 112 kts 55°
2026-04-27 18:54 43.31824 76.97075 3045 ft 104 kts 57°
2026-04-27 18:54 43.32217 76.97926 2922 ft 108 kts 55°
2026-04-27 18:54 43.32648 76.98788 2785 ft 111 kts 54°
2026-04-27 18:55 43.33095 76.99656 2626 ft 111 kts 56°
2026-04-27 18:55 43.33523 77.00554 2471 ft 112 kts 56°
2026-04-27 18:55 43.33962 77.01410 2294 ft 109 kts 56°
2026-04-27 18:55 43.34355 77.02202 2225 ft 86 kts 57°
2026-04-27 18:56 43.34706 77.02909 2248 ft 104 kts 57°
2026-04-27 18:56 43.35137 77.03804 2424 ft 117 kts 58°
2026-04-27 18:56 43.35590 77.04764 2657 ft 124 kts 57°
2026-04-27 18:56 43.36063 77.05780 2888 ft 128 kts 56°
2026-04-27 18:57 43.36560 77.06800 3135 ft 128 kts 55°
2026-04-27 18:57 43.37066 77.07814 3354 ft 129 kts 55°
2026-04-27 18:57 43.37543 77.08810 3617 ft 124 kts 55°
2026-04-27 18:57 43.38017 77.09775 3868 ft 121 kts 54°
2026-04-27 18:58 43.38507 77.10723 4078 ft 123 kts 54°
2026-04-27 18:58 43.38832 77.11372 4223 ft 125 kts 54°
2026-04-27 18:58 43.39487 77.12678 4533 ft 125 kts 56°
2026-04-27 18:58 43.39969 77.13694 4733 ft 127 kts 56°
2026-04-27 18:59 43.40466 77.14696 4951 ft 126 kts 47°
2026-04-27 18:59 43.41258 77.15041 5160 ft 127 kts 345°
2026-04-27 18:59 43.42036 77.14361 5209 ft 140 kts 324°
2026-04-27 18:59 43.42852 77.13552 5211 ft 149 kts 326°
2026-04-27 19:00 43.43710 77.12723 5211 ft 153 kts 326°
2026-04-27 19:00 43.44577 77.11883 5208 ft 150 kts 326°
2026-04-27 19:00 43.45416 77.11062 5207 ft 147 kts 326°
2026-04-27 19:00 43.46249 77.10257 5205 ft 146 kts 326°
2026-04-27 19:01 43.47075 77.09449 5209 ft 146 kts 326°
2026-04-27 19:01 43.47904 77.08639 5205 ft 147 kts 325°
2026-04-27 19:01 43.48419 77.07457 5196 ft 151 kts 275°
2026-04-27 19:01 43.48085 77.06116 5205 ft 152 kts 235°
2026-04-27 19:02 43.47478 77.04922 5209 ft 153 kts 235°
2026-04-27 19:02 43.46869 77.03712 5208 ft 154 kts 235°
2026-04-27 19:02 43.46255 77.02503 5206 ft 155 kts 235°
2026-04-27 19:02 43.45640 77.01294 5209 ft 155 kts 235°
2026-04-27 19:03 43.45025 77.00082 5207 ft 155 kts 235°
2026-04-27 19:03 43.44408 76.98870 5210 ft 154 kts 235°
2026-04-27 19:03 43.43807 76.97686 5202 ft 149 kts 235°
2026-04-27 19:03 43.43413 76.96910 5202 ft 148 kts 235°
2026-04-27 19:04 43.42634 76.95374 5192 ft 147 kts 235°
2026-04-27 19:04 43.42053 76.94229 5189 ft 146 kts 235°
2026-04-27 19:04 43.41474 76.93086 5193 ft 146 kts 235°
2026-04-27 19:04 43.40894 76.91945 5193 ft 146 kts 235°
2026-04-27 19:05 43.40318 76.90807 5189 ft 145 kts 235°
2026-04-27 19:05 43.39739 76.89671 5192 ft 145 kts 235°
2026-04-27 19:05 43.39160 76.88541 5188 ft 145 kts 235°
2026-04-27 19:05 43.38582 76.87412 5178 ft 145 kts 235°
2026-04-27 19:06 43.38002 76.86280 5180 ft 145 kts 234°
2026-04-27 19:06 43.37430 76.85133 5175 ft 146 kts 235°
2026-04-27 19:06 43.36859 76.83982 5175 ft 146 kts 235°
2026-04-27 19:06 43.36284 76.82829 5181 ft 147 kts 235°
2026-04-27 19:07 43.35712 76.81674 5184 ft 147 kts 235°
2026-04-27 19:07 43.34927 76.80863 5130 ft 146 kts 189°
2026-04-27 19:07 43.33978 76.81151 4912 ft 139 kts 146°
2026-04-27 19:07 43.33162 76.81849 4690 ft 140 kts 145°
2026-04-27 19:08 43.32307 76.82571 4474 ft 151 kts 145°
2026-04-27 19:08 43.31390 76.83358 4267 ft 160 kts 144°
2026-04-27 19:08 43.30473 76.84197 4206 ft 154 kts 143°
2026-04-27 19:08 43.29614 76.85011 4203 ft 147 kts 142°
2026-04-27 19:09 43.28782 76.85801 4201 ft 144 kts 142°
2026-04-27 19:09 43.27961 76.86577 4196 ft 143 kts 142°
2026-04-27 19:09 43.27199 76.87425 4191 ft 140 kts 122°
2026-04-27 19:09 43.27081 76.88681 4195 ft 137 kts 75°
2026-04-27 19:10 43.27467 76.89864 4201 ft 137 kts 51°
2026-04-27 19:10 43.28147 76.90753 4205 ft 135 kts 39°
2026-04-27 19:10 43.28850 76.91608 4185 ft 136 kts 44°
2026-04-27 19:10 43.29287 76.92235 4154 ft 138 kts 50°
2026-04-27 19:11 43.30005 76.93706 4002 ft 145 kts 51°
2026-04-27 19:11 43.30624 76.94825 3792 ft 149 kts 52°
2026-04-27 19:11 43.31218 76.95959 3479 ft 141 kts 53°
2026-04-27 19:11 43.31762 76.97019 3157 ft 132 kts 52°
2026-04-27 19:12 43.32252 76.97982 2955 ft 114 kts 53°
2026-04-27 19:12 43.32687 76.98860 2769 ft 110 kts 54°
2026-04-27 19:12 43.33125 76.99711 2613 ft 109 kts 54°
2026-04-27 19:12 43.33538 77.00550 2463 ft 104 kts 54°
2026-04-27 19:13 43.33944 77.01366 2314 ft 102 kts 56°
2026-04-27 19:13 43.34322 77.02130 2226 ft 85 kts 55°
2026-04-27 19:13 43.34558 77.02607 2229 ft 47 kts 55°
2026-04-27 19:13 43.34723 77.02940 2226 ft 21 kts 50°
2026-04-27 19:14 43.34779 77.02873 2226 ft 13 kts 268°
2026-04-27 19:14 43.34774 77.02752 2226 ft 19 kts 266°
2026-04-27 19:14 43.34768 77.02533 2230 ft 26 kts 270°
2026-04-27 19:14 43.34780 77.02289 2223 ft 25 kts 274°
2026-04-27 19:15 43.34791 77.02020 2221 ft 26 kts 272°
2026-04-27 19:15 43.34805 77.01771 2220 ft 28 kts 274°
2026-04-27 19:15 43.34818 77.01522 2220 ft 17 kts 274°
2026-04-27 19:15 43.34710 77.01445 2220 ft 22 kts 196°
2026-04-27 19:16 43.34582 77.01472 2218 ft 21 kts 160°
2026-04-27 19:16 43.34485 77.01531 2220 ft 25 kts 156°
2026-04-27 19:16 43.34319 77.01631 2220 ft 9 kts 166°
2026-04-27 19:16 43.34297 77.01595 2220 ft 12 kts 246°
2026-04-27 19:17 43.34266 77.01496 2221 ft 10 kts 253°
2026-04-27 19:17 43.34280 77.01432 2221 ft 10 kts 244°
2026-04-27 19:17 43.34273 77.01411 2218 ft 0 kts 246°